Flag for U.S.A. Weather past 2 weeks in Lafayette, Indiana, U.S.A.

Now
64 °F

Passing clouds.


Feels Like: 64 °F
Forecast: 61 / 81 °F
Wind: No wind

Location: Purdue University Airport

Current Time: Aug 29, 2015 at 5:50:46 AM

Latest Report: Aug 29, 2015 at 4:54 AM


Visibility: 10 mi

Pressure: 30.05 "Hg

Humidity: 81%

Dew point: 58 °F

Location of LafayetteLocation

Historic Weather in Lafayette — Graph

°F

Lafayette temperature yesterday

Maximum temperature yesterday: 78 °F (at 2:54 PM)
Minimum temperature yesterday: 57 °F (at 4:54 AM)
Average temperature yesterday: 68 °F

Past Weeks' High & Low Weather Summary

 TemperatureHumidityPressure
High87 °F (Aug 16, 3:54 PM)100% (Aug 16, 6:54 AM)30.22 "Hg (Aug 16, 6:54 AM)
Low51 °F (Aug 21, 5:54 AM)35% (Aug 24, 2:54 PM)29.69 "Hg (Aug 19, 7:54 AM)
Average69 °F75%30.02 "Hg
* Reported Aug 14 3:54 AM — Aug 29 3:54 AM, Lafayette, Weather by CustomWeather, © 2015

Note: Actual official high and low records may vary slightly from our data, if they occured in-between our weather recording intervals... More about our weather records

Advertising

Lafayette weather history for previous 24 hours

 ConditionsComfort  
Time TempWeatherWind HumidityBarometerVisibility
3:54 AM
Sat, Aug 29
65 °FPassing clouds.No wind78%30.06 "Hg10 mi
2:54 AM63 °FClear.5 mph84%30.06 "Hg10 mi
1:54 AM63 °FClear.5 mph81%30.07 "Hg10 mi
12:54 AM65 °FClear.5 mph76%30.07 "Hg10 mi
11:54 PM
Fri, Aug 28
67 °FClear.5 mph73%30.06 "Hg10 mi
10:54 PM68 °FClear.5 mph73%30.07 "Hg10 mi
9:54 PM68 °FClear.No wind73%30.07 "Hg10 mi
8:54 PM70 °FSunny.3 mph66%30.06 "Hg10 mi
7:54 PM74 °FSunny.5 mph56%30.06 "Hg10 mi
6:54 PM76 °FSunny.6 mph52%30.07 "Hg10 mi
5:54 PM77 °FSunny.5 mph48%30.07 "Hg10 mi
4:54 PM78 °FSunny.7 mph45%30.09 "Hg10 mi
3:54 PM78 °FPassing clouds.6 mph46%30.11 "Hg10 mi
2:54 PM78 °FPassing clouds.6 mph48%30.13 "Hg10 mi
1:54 PM77 °FSunny.8 mph50%30.14 "Hg10 mi
12:54 PM75 °FSunny.7 mph54%30.16 "Hg10 mi
11:54 AM74 °FSunny.7 mph56%30.17 "Hg10 mi
10:54 AM72 °FSunny.6 mph61%30.16 "Hg10 mi
9:54 AM66 °FSunny.6 mph75%30.17 "Hg10 mi
8:54 AM62 °FSunny.No wind86%30.15 "Hg10 mi
7:54 AM58 °FClear.No wind90%30.15 "Hg7 mi
6:54 AM57 °FClear.No wind93%30.14 "Hg8 mi
5:54 AM58 °FClear.No wind90%30.12 "Hg10 mi
Weather by CustomWeather, © 2015

See weather overviewHow to use our weather pages